Theta_e
334 335 338 344 344 344 344 342 346 346 352 351 347 345 347 343 345 353 354 353 352 356 354 354 353 353 349 350 351 350 347 346 350 348 344 343 345 342 341 345 346 343 351
333 335 335 340 344 342 343 345 349 347 350 353 350 351 354 350 353 352 347 349 351 355 357 355 353 353 351 351 349 348 346 347 349 343 340 334 339 340 339 345 343 340 348
334 334 335 337 344 345 346 352 351 350 350 352 350 350 352 352 351 347 348 343 347 352 356 354 350 350 352 351 351 349 346 343 345 348 342 333 329 335 338 335 340 346 347
336 336 336 338 343 343 349 353 350 349 350 353 349 349 344 339 348 346 346 347 348 353 358 357 355 354 355 351 350 354 350 347 341 345 349 345 340 332 330 339 337 339 343
336 337 337 340 344 346 350 352 351 350 348 355 355 352 346 349 353 350 348 350 352 355 354 353 351 352 353 352 350 350 347 346 344 344 344 342 341 343 338 330 332 338 346
337 338 339 341 343 346 350 354 352 353 353 353 352 350 349 348 345 348 348 349 350 352 352 352 350 350 349 348 346 346 346 346 348 347 345 343 342 339 337 334 333 334 338
336 338 338 339 341 343 350 353 350 350 353 352 351 353 349 349 349 348 348 346 346 349 348 347 347 344 341 339 342 338 338 338 340 339 338 337 337 341 342 339 337 329 328
336 337 339 340 341 343 350 351 348 350 352 352 352 352 350 354 351 352 351 349 347 345 344 341 337 335 337 338 338 338 337 336 336 334 333 336 333 333 331 332 327 321 322
336 337 340 340 340 342 345 350 350 351 352 351 351 355 354 351 353 353 351 342 339 342 334 334 333 336 337 335 335 335 333 333 332 332 333 333 333 333 333 330 329 326 321
337 338 339 340 341 341 347 350 351 350 350 350 354 355 355 354 351 343 338 336 335 335 334 333 334 333 334 333 332 329 329 331 331 331 331 330 330 332 332 332 330 328 324
335 336 338 340 340 341 348 349 349 349 349 350 353 353 354 351 345 338 334 335 334 333 333 334 333 332 333 334 330 329 330 328 328 332 332 333 335 334 335 336 334 330 329
335 336 338 339 339 340 347 348 350 350 350 353 353 353 348 345 338 335 333 333 331 334 334 334 332 333 332 330 329 330 330 329 329 330 331 331 336 330 331 332 332 332 332
333 335 337 337 338 339 347 349 349 348 350 351 351 348 343 334 333 333 332 332 332 333 333 333 331 329 329 329 329 328 328 327 328 329 330 330 329 326 326 327 326 330 331
333 334 336 336 337 339 343 347 346 348 350 350 346 341 338 334 334 332 332 332 333 331 333 334 333 331 330 330 328 328 327 325 325 326 327 330 329 325 324 324 324 324 325
333 334 335 336 338 341 343 347 347 351 352 349 344 339 337 334 333 332 331 332 331 333 332 331 330 330 327 330 325 325 324 324 323 324 322 323 331 334 329 324 322 322 321
335 335 337 338 340 343 344 348 348 351 351 348 341 341 335 333 332 330 330 331 332 330 330 331 330 329 326 330 330 327 322 323 324 320 321 319 331 331 333 333 333 331 321
336 337 338 339 342 345 347 345 346 351 350 347 342 337 334 333 331 331 331 330 330 330 330 329 329 329 323 329 329 331 323 322 321 323 319 318 329 326 323 325 327 326 331
337 339 342 341 344 348 347 345 351 351 348 342 339 336 335 333 332 331 329 330 330 330 329 329 328 326 326 327 327 330 322 322 323 324 322 316 319 318 317 317 317 320 323
332 342 346 344 348 349 351 350 349 349 344 338 338 336 336 334 332 329 329 330 329 329 328 328 326 326 326 324 325 323 321 321 320 322 323 316 320 320 320 315 314 316 319
347 337 345 347 349 348 353 349 347 347 341 340 337 337 337 335 333 331 330 330 329 327 328 329 325 327 326 322 322 322 321 317 317 315 312 324 319 319 317 312 311 310 315
346 344 341 332 333 334 329 323 343 341 342 341 341 339 338 336 335 334 332 330 329 327 325 326 324 326 325 323 320 320 317 317 311 310 309 314 317 315 314 315 310 311 314
344 338 332 332 334 334 330 325 331 339 340 339 338 337 337 338 337 332 329 328 326 324 323 324 324 325 326 322 319 318 316 317 307 306 311 313 315 314 314 314 314 317 316
340 339 330 329 331 327 328 329 330 339 339 339 338 338 337 336 334 331 328 327 327 325 323 323 322 322 325 323 319 316 316 317 308 308 310 312 312 311 312 313 315 316 311
336 336 333 326 327 330 332 328 332 336 335 336 337 335 334 335 334 333 331 328 326 325 323 322 320 321 322 321 317 315 313 314 313 313 309 311 312 314 315 315 312 312 312
338 337 333 331 331 332 328 329 331 338 336 334 335 336 336 333 331 330 330 329 327 324 320 319 318 318 312 314 315 313 313 311 310 310 310 308 308 310 311 312 311 311 313
335 335 335 332 332 333 333 335 338 336 334 334 334 334 334 332 332 330 329 320 316 314 311 311 314 318 314 307 307 309 309 306 307 303 304 305 307 308 309 313 313 314 317
Wind_Speed
6 7 7 12 11 9 8 8 9 7 6 4 5 2 4 3 2 3 4 2 1 3 3 1 1 2 1 4 5 2 4 3 3 1 2 2 0 3 2 3 3 4 4
13 13 10 11 12 13 9 7 9 8 5 2 2 3 4 3 2 5 6 3 3 5 3 1 2 3 1 4 3 2 0 1 1 1 1 2 3 1 1 2 2 3 6
17 15 14 13 12 14 13 9 9 8 5 4 1 1 3 4 3 3 2 3 2 4 6 3 2 3 1 1 3 3 1 1 2 1 3 2 1 3 2 2 2 2 3
13 14 9 14 14 10 11 11 10 8 5 5 1 2 3 3 3 3 2 4 7 5 3 5 3 4 3 4 2 3 1 2 1 2 1 2 2 2 4 2 2 3 7
20 16 11 16 14 12 11 11 10 8 6 6 5 4 3 3 2 4 6 7 5 5 5 5 5 4 4 5 5 5 4 2 2 2 3 2 2 2 2 3 4 2 5
20 18 14 13 13 13 12 10 10 7 6 6 6 4 6 3 4 3 4 3 2 3 4 5 3 5 4 4 3 3 5 4 3 2 2 1 1 2 2 3 3 3 4
17 17 14 12 13 13 14 12 10 7 7 8 7 6 6 5 5 5 4 4 2 2 3 4 5 3 4 5 5 4 3 4 4 3 1 1 2 3 3 3 4 3 3
14 14 15 14 13 13 15 13 11 8 8 7 7 6 6 3 4 4 3 3 3 4 5 5 5 5 5 5 5 3 4 4 5 7 5 3 3 2 3 3 1 3 2
16 15 14 15 12 11 12 14 12 8 8 8 6 5 5 5 6 5 4 5 5 4 6 5 5 6 6 5 5 4 5 5 4 4 5 3 2 3 3 3 2 3 3
18 15 14 14 11 9 10 13 11 10 8 8 7 6 7 7 6 6 7 7 6 5 6 4 5 5 4 4 4 3 3 3 3 1 3 4 3 4 3 3 3 2 1
15 16 14 14 12 9 12 11 9 9 9 9 8 8 8 7 7 6 5 6 5 5 6 4 4 3 5 4 3 3 3 2 2 4 4 5 6 4 4 5 4 4 3
15 14 15 16 14 11 12 12 10 10 9 9 10 11 8 8 7 7 6 6 4 4 4 4 3 2 5 3 2 4 4 5 4 3 4 3 3 5 6 4 6 4 3
13 13 15 14 14 12 12 12 11 10 9 10 11 10 8 8 8 7 6 5 4 4 5 4 4 2 3 3 2 3 3 5 6 2 4 3 4 3 3 4 5 4 4
15 14 15 14 13 12 12 12 9 9 11 10 10 10 8 8 8 7 7 6 4 2 4 3 4 2 2 1 3 2 3 3 3 4 4 1 3 2 3 4 4 5 5
17 17 17 16 15 14 14 14 9 11 12 12 11 8 8 8 9 8 7 6 4 2 3 3 2 0 5 3 5 4 4 5 4 3 4 3 3 4 4 2 3 4 4
19 19 20 20 20 19 17 16 11 13 13 12 12 9 11 10 8 8 7 6 5 5 3 1 2 1 4 7 6 3 4 5 5 1 3 4 8 3 1 4 6 5 2
17 20 21 21 19 19 18 16 10 12 12 11 11 12 11 9 7 7 6 5 5 4 4 2 1 3 6 7 5 1 1 3 4 4 1 2 4 6 4 6 6 6 10
9 13 14 17 17 17 16 15 11 13 11 10 11 10 10 8 7 6 6 5 5 5 4 3 2 3 4 8 6 1 3 4 6 5 6 3 5 3 3 3 5 6 6
3 7 15 20 17 20 19 17 14 13 11 10 7 9 10 9 5 5 6 5 4 4 5 5 4 4 3 8 6 2 3 5 6 7 6 6 6 6 4 3 5 6 5
12 7 12 16 12 4 16 18 18 16 13 11 8 8 7 11 9 8 7 4 3 3 3 2 5 6 5 9 9 5 1 4 4 6 7 8 6 8 4 1 3 4 4
15 19 20 21 14 19 19 27 7 15 14 11 11 9 7 8 7 5 3 3 3 3 1 2 2 3 6 7 8 8 3 3 2 3 4 1 6 5 4 4 4 5 3
15 10 9 9 6 17 16 23 31 15 9 7 6 6 5 4 5 7 4 3 3 3 3 3 4 4 5 8 10 11 9 6 3 4 2 2 4 6 8 5 9 10 5
13 9 10 8 8 14 18 15 5 2 9 14 8 6 5 4 5 6 4 3 5 5 4 4 4 5 5 6 13 12 10 8 3 3 6 8 9 10 7 11 12 10 3
13 11 13 10 10 13 16 17 16 11 5 3 9 7 5 5 5 4 4 5 5 5 5 3 3 4 2 3 3 4 4 5 5 6 6 7 8 7 7 6 5 4 4
13 11 12 11 7 5 4 7 9 10 10 7 6 7 6 7 6 5 6 6 6 6 5 5 4 5 3 3 8 8 5 5 8 4 2 3 3 4 5 5 5 5 4
12 11 13 10 5 6 7 6 7 7 7 6 5 5 4 5 5 5 5 10 9 10 7 6 4 2 3 11 11 11 11 10 9 2 3 3 4 5 5 5 5 4 7
Wind_Direction
167 159 151 138 138 134 136 150 129 145 133 128 154 198 211 206 122 152 132 77 168 235 197 191 7 344 222 230 216 194 210 286 261 301 355 40 98 82 48 108 168 133 117
172 170 187 160 162 160 161 163 143 146 155 148 163 157 200 146 113 80 43 358 18 336 236 179 247 265 312 315 302 264 221 288 357 165 38 324 324 351 354 300 305 66 105
166 175 183 183 152 153 171 153 151 156 165 140 86 112 46 56 82 118 68 313 306 291 290 210 188 296 254 329 297 302 166 149 307 56 140 355 302 333 343 343 290 101 124
162 167 173 155 153 169 143 141 147 156 177 162 178 130 132 136 199 157 157 226 267 289 63 76 60 13 30 11 340 26 105 131 234 326 98 94 160 95 332 295 199 179 229
167 164 166 161 160 152 143 146 146 152 170 167 155 143 139 150 124 134 151 184 188 80 68 62 46 53 43 36 34 35 30 62 42 40 351 357 223 232 179 278 323 337 218
162 167 171 156 150 158 140 141 141 157 169 147 143 130 166 136 102 130 122 117 98 100 90 88 66 40 38 36 53 17 356 354 336 46 27 103 296 273 219 258 288 264 296
155 167 155 154 146 152 137 141 145 149 156 160 162 160 167 172 150 132 143 142 159 141 152 84 78 55 41 25 17 7 349 18 32 3 322 73 6 345 298 237 243 205 286
151 144 150 140 147 141 145 148 153 158 165 173 174 180 181 165 147 129 134 141 130 130 91 88 87 70 58 40 14 29 50 37 31 12 17 30 39 27 1 317 288 350 328
147 142 142 142 147 147 152 155 157 159 166 167 175 164 147 123 125 115 119 97 101 109 87 95 86 79 73 56 33 51 35 36 33 21 15 14 360 8 349 316 346 125 5
140 139 142 142 147 144 144 152 158 162 168 169 164 165 142 125 124 109 106 110 110 104 97 102 117 119 121 99 69 43 13 43 345 347 6 356 332 349 344 340 356 25 127
147 147 147 144 148 139 144 151 155 165 178 171 166 142 136 139 121 113 116 125 119 122 122 107 115 116 102 75 50 355 159 105 312 354 67 36 27 13 14 14 9 17 17
153 152 150 150 156 153 152 162 165 180 185 168 151 147 145 133 125 130 126 121 123 128 135 132 143 117 115 100 20 37 33 36 43 86 71 59 46 25 10 10 7 4 5
149 150 149 155 158 157 160 167 176 187 164 146 149 135 140 131 137 138 136 129 138 150 140 139 132 131 142 148 90 91 51 28 28 51 81 96 92 53 18 3 5 355 347
161 154 159 159 159 161 165 173 186 162 155 142 136 139 141 140 135 135 139 139 152 134 152 162 186 154 194 160 141 63 39 60 32 30 35 143 113 112 43 13 5 355 351
165 164 167 166 166 166 174 172 178 155 146 138 139 154 139 138 131 129 135 142 142 164 115 108 75 83 66 49 83 34 20 33 339 36 27 25 299 163 137 101 353 359 350
177 174 172 172 172 171 175 173 171 157 151 144 149 136 130 132 133 136 146 150 155 140 128 135 157 206 127 118 94 78 8 359 2 328 47 6 35 126 356 357 322 272 280
184 182 177 178 177 175 169 172 159 152 156 140 142 139 135 131 134 136 148 160 166 160 168 183 128 65 140 150 147 125 12 333 311 312 217 16 67 72 52 3 345 330 318
199 187 177 180 178 170 164 162 144 147 146 138 143 141 131 128 134 145 165 168 167 166 166 199 173 143 187 187 169 201 321 314 299 291 242 182 135 148 99 357 339 327 325
286 211 182 179 172 169 163 151 141 132 124 139 137 138 136 121 135 172 191 198 179 172 170 178 211 206 150 167 177 186 322 316 311 308 257 201 165 166 97 18 334 329 330
356 249 190 183 156 63 144 140 145 140 137 137 147 140 152 154 171 187 187 170 168 177 173 175 175 155 155 184 190 179 248 315 337 335 352 312 140 155 134 143 302 314 292
24 20 88 86 68 55 42 5 246 130 132 137 155 149 168 153 160 169 156 156 154 128 85 159 193 191 181 199 181 188 197 219 281 310 340 63 130 158 201 221 239 237 273
40 59 53 58 94 102 56 343 295 79 46 52 41 63 102 119 127 138 139 147 162 187 213 226 259 237 229 174 193 197 203 185 193 257 249 212 233 248 251 246 245 259 273
58 67 90 76 58 88 134 129 295 284 164 135 136 133 138 123 157 138 158 194 220 209 227 215 242 247 222 198 192 194 208 221 206 237 232 216 253 250 259 254 250 253 249
72 68 63 76 87 120 152 164 171 185 148 168 152 136 158 177 171 169 173 209 222 228 227 220 234 262 198 165 166 184 204 244 254 278 276 259 253 234 243 261 251 239 226
89 92 94 92 97 141 184 179 177 173 162 158 146 175 181 178 179 192 201 211 224 196 193 196 177 128 131 200 172 171 191 207 223 217 268 277 285 292 283 265 241 233 228
108 108 113 120 128 181 174 168 158 142 150 172 188 197 186 190 180 202 235 249 231 210 208 202 164 251 200 171 174 187 194 196 177 167 228 250 264 266 261 263 265 223 232